TimeEDT,TemperatureF,Dew PointF,Humidity,Sea Level PressureIn,VisibilityMPH,Wind Direction,Wind SpeedMPH,Gust SpeedMPH,PrecipitationIn,Events,Conditions,WindDirDegrees,DateUTC
12:55 AM,22.1,6.1,50,30.34,10.0,NNE,6.9,-,N/A,,Clear,30,2013-03-18 04:55:00
1:55 AM,21.4,2.7,44,30.36,10.0,NE,9.2,-,N/A,,Clear,40,2013-03-18 05:55:00
2:55 AM,21.6,2.7,44,30.39,10.0,NNE,8.1,-,N/A,,Clear,20,2013-03-18 06:55:00
3:55 AM,16.3,3.6,57,30.39,10.0,Calm,Calm,-,N/A,,Clear,0,2013-03-18 07:55:00
4:55 AM,13.6,4.5,67,30.40,10.0,ENE,4.6,-,N/A,,Clear,60,2013-03-18 08:55:00
5:55 AM,15.4,4.5,62,30.42,10.0,ENE,3.5,-,N/A,,Clear,60,2013-03-18 09:55:00
6:55 AM,15.3,6.3,68,30.45,10.0,Calm,Calm,-,N/A,,Clear,0,2013-03-18 10:55:00
7:55 AM,17.8,8.4,67,30.46,10.0,Calm,Calm,-,N/A,,Clear,0,2013-03-18 11:55:00
8:55 AM,22.6,3.6,44,30.46,10.0,North,5.8,-,N/A,,Clear,360,2013-03-18 12:55:00
9:55 AM,26.1,0.5,33,30.44,10.0,Variable,5.8,-,N/A,,Clear,0,2013-03-18 13:55:00
10:55 AM,28.4,1.0,31,30.43,10.0,North,5.8,-,N/A,,Clear,10,2013-03-18 14:55:00
11:55 AM,31.5,-0.9,25,30.40,10.0,North,6.9,-,N/A,,Clear,360,2013-03-18 15:55:00
12:55 PM,34.2,-0.9,22,30.39,10.0,Calm,Calm,-,N/A,,Partly Cloudy,0,2013-03-18 16:55:00
1:55 PM,36.5,-0.2,21,30.36,10.0,Variable,4.6,-,N/A,,Partly Cloudy,0,2013-03-18 17:55:00
2:55 PM,37.4,-0.2,20,30.32,10.0,SE,3.5,-,N/A,,Scattered Clouds,140,2013-03-18 18:55:00
3:55 PM,38.1,0.9,21,30.30,10.0,Calm,Calm,-,N/A,,Partly Cloudy,0,2013-03-18 19:55:00
4:55 PM,37.4,0.9,21,30.27,10.0,Calm,Calm,-,N/A,,Mostly Cloudy,0,2013-03-18 20:55:00
5:55 PM,37.2,2.3,23,30.26,10.0,SSE,5.8,-,N/A,,Scattered Clouds,150,2013-03-18 21:55:00
6:55 PM,36.3,2.8,25,30.24,10.0,SSE,3.5,-,N/A,,Partly Cloudy,150,2013-03-18 22:55:00
7:55 PM,34.2,12.2,40,30.24,10.0,Variable,3.5,-,N/A,,Partly Cloudy,0,2013-03-18 23:55:00
8:06 PM,32.0,17.6,55,30.23,10.0,Variable,3.5,-,N/A,Snow,Light Snow,0,2013-03-19 00:06:00
8:42 PM,32.0,19.4,60,30.23,10.0,Variable,5.8,-,N/A,,Overcast,0,2013-03-19 00:42:00
8:55 PM,32.0,20.5,63,30.24,10.0,ESE,4.6,-,N/A,,Partly Cloudy,110,2013-03-19 00:55:00
9:55 PM,32.4,16.0,51,30.23,10.0,South,12.7,-,N/A,,Clear,170,2013-03-19 01:55:00
10:17 PM,30.2,23.0,75,30.23,10.0,South,11.5,-,N/A,Snow,Light Snow,190,2013-03-19 02:17:00
10:37 PM,28.4,24.8,86,30.22,6.0,SSW,6.9,-,N/A,Snow,Light Snow,200,2013-03-19 02:37:00
10:40 PM,28.4,24.8,86,30.22,6.0,South,5.8,-,N/A,Snow,Light Snow,190,2013-03-19 02:40:00
10:52 PM,28.4,26.6,93,30.22,2.5,Calm,Calm,-,N/A,Snow,Light Snow,0,2013-03-19 02:52:00
10:54 PM,28.4,26.6,93,30.22,3.0,SSE,3.5,-,N/A,Snow,Light Snow,150,2013-03-19 02:54:00
10:55 PM,28.6,26.2,91,30.22,3.0,Calm,Calm,-,0.00,Snow,Light Snow,0,2013-03-19 02:55:00
10:56 PM,28.4,26.6,93,30.22,3.0,Calm,Calm,-,N/A,Snow,Light Snow,0,2013-03-19 02:56:00
10:59 PM,28.4,26.6,93,30.22,2.5,Calm,Calm,-,N/A,Snow,Light Snow,0,2013-03-19 02:59:00
11:03 PM,28.4,26.6,93,30.22,2.0,Calm,Calm,-,N/A,Snow,Light Snow,0,2013-03-19 03:03:00
11:05 PM,28.4,26.6,93,30.22,1.8,Variable,3.5,-,N/A,Snow,Light Snow,0,2013-03-19 03:05:00
11:07 PM,28.4,26.6,93,30.21,1.5,Calm,Calm,-,N/A,Snow,Light Snow,0,2013-03-19 03:07:00
11:08 PM,28.4,26.6,93,30.21,1.5,Calm,Calm,-,N/A,Snow,Light Snow,0,2013-03-19 03:08:00
11:09 PM,28.4,26.6,93,30.21,1.2,Calm,Calm,-,N/A,Snow,Light Snow,0,2013-03-19 03:09:00
11:10 PM,28.4,26.6,93,30.21,1.2,Calm,Calm,-,N/A,Snow,Light Snow,0,2013-03-19 03:10:00
11:11 PM,28.4,26.6,93,30.21,1.2,Calm,Calm,-,N/A,Snow,Light Snow,0,2013-03-19 03:11:00
11:12 PM,28.4,26.6,93,30.21,1.2,Calm,Calm,-,N/A,Snow,Light Snow,0,2013-03-19 03:12:00
11:14 PM,28.4,26.6,93,30.21,1.2,Calm,Calm,-,N/A,Snow,Light Snow,0,2013-03-19 03:14:00
11:15 PM,28.4,26.6,93,30.21,1.2,East,3.5,-,N/A,Snow,Light Snow,80,2013-03-19 03:15:00
11:18 PM,28.4,26.6,93,30.20,1.5,East,4.6,-,N/A,Snow,Light Snow,90,2013-03-19 03:18:00
11:22 PM,28.4,26.6,93,30.20,1.8,ENE,3.5,-,N/A,Snow,Light Snow,70,2013-03-19 03:22:00
11:23 PM,28.4,26.6,93,30.20,1.8,ENE,3.5,-,N/A,Snow,Light Snow,70,2013-03-19 03:23:00
11:40 PM,28.4,26.6,93,30.19,1.8,Variable,3.5,-,N/A,Snow,Light Snow,0,2013-03-19 03:40:00
11:41 PM,28.4,26.6,93,30.19,1.8,ENE,3.5,-,N/A,Snow,Light Snow,60,2013-03-19 03:41:00
11:47 PM,28.4,26.6,93,30.18,1.5,Variable,5.8,-,N/A,Snow,Light Snow,0,2013-03-19 03:47:00
11:48 PM,28.4,26.6,93,30.18,1.5,ENE,5.8,-,N/A,Snow,Light Snow,70,2013-03-19 03:48:00
11:55 PM,28.4,27.3,96,30.18,1.5,NE,5.8,-,0.02,Snow,Light Snow,50,2013-03-19 03:55:00
11:56 PM,28.4,26.6,93,30.18,1.5,NE,6.9,-,N/A,Snow,Light Snow,50,2013-03-19 03:56:00